TimeHST,TemperatureF,Dew PointF,Humidity,Sea Level PressureIn,VisibilityMPH,Wind Direction,Wind SpeedMPH,Gust SpeedMPH,PrecipitationIn,Events,Conditions,WindDirDegrees,DateUTC
12:00 AM,68.0,62.6,83,30.14,10.0,West,5.8,-,N/A,,Overcast,270,2013-03-07 10:00:00
12:25 AM,66.2,62.6,88,30.13,10.0,West,6.9,-,N/A,,Overcast,270,2013-03-07 10:25:00
12:53 AM,66.9,62.1,84,30.12,10.0,WNW,5.8,-,N/A,,Mostly Cloudy,290,2013-03-07 10:53:00
1:53 AM,64.9,62.1,90,30.09,10.0,West,8.1,-,N/A,,Clear,280,2013-03-07 11:53:00
2:53 AM,64.0,60.1,87,30.07,10.0,West,6.9,-,N/A,,Clear,270,2013-03-07 12:53:00
3:53 AM,64.0,59.0,84,30.05,10.0,West,8.1,-,N/A,,Scattered Clouds,270,2013-03-07 13:53:00
4:53 AM,63.0,59.0,87,30.05,10.0,West,5.8,-,N/A,,Clear,270,2013-03-07 14:53:00
5:53 AM,62.1,59.0,90,30.06,10.0,WSW,5.8,-,N/A,,Partly Cloudy,250,2013-03-07 15:53:00
6:53 AM,63.0,60.1,90,30.07,10.0,West,5.8,-,N/A,,Partly Cloudy,270,2013-03-07 16:53:00
7:53 AM,64.9,61.0,87,30.09,10.0,West,6.9,-,N/A,,Scattered Clouds,270,2013-03-07 17:53:00
8:53 AM,69.1,63.0,81,30.11,10.0,West,3.5,-,N/A,,Partly Cloudy,280,2013-03-07 18:53:00
9:53 AM,73.0,63.0,71,30.11,10.0,East,9.2,-,N/A,,Scattered Clouds,100,2013-03-07 19:53:00
10:53 AM,75.0,64.0,69,30.10,10.0,ESE,9.2,-,N/A,,Scattered Clouds,120,2013-03-07 20:53:00
11:53 AM,75.9,64.0,67,30.09,10.0,SE,11.5,-,N/A,,Partly Cloudy,130,2013-03-07 21:53:00
12:53 PM,77.0,63.0,62,30.06,10.0,ESE,10.4,-,N/A,,Clear,120,2013-03-07 22:53:00
1:53 PM,77.0,62.1,60,30.04,10.0,SE,11.5,-,N/A,,Partly Cloudy,140,2013-03-07 23:53:00
2:53 PM,75.9,61.0,60,30.02,10.0,ESE,11.5,-,N/A,,Partly Cloudy,120,2013-03-08 00:53:00
3:53 PM,75.0,61.0,62,30.01,10.0,SE,9.2,-,N/A,,Clear,130,2013-03-08 01:53:00
4:53 PM,75.0,61.0,62,30.01,10.0,SE,6.9,-,N/A,,Partly Cloudy,130,2013-03-08 02:53:00
5:53 PM,72.0,61.0,68,30.02,10.0,ESE,5.8,-,N/A,,Clear,120,2013-03-08 03:53:00
6:25 PM,71.6,60.8,69,30.03,10.0,ENE,4.6,-,N/A,,Mostly Cloudy,70,2013-03-08 04:25:00
6:53 PM,70.0,63.0,78,30.03,10.0,North,5.8,-,N/A,,Partly Cloudy,10,2013-03-08 04:53:00
7:53 PM,66.9,61.0,81,30.04,10.0,Calm,Calm,-,N/A,,Clear,0,2013-03-08 05:53:00
8:02 PM,66.2,60.8,83,30.05,10.0,WNW,4.6,-,N/A,,Partly Cloudy,290,2013-03-08 06:02:00
8:53 PM,64.9,61.0,87,30.06,10.0,West,5.8,-,N/A,,Clear,270,2013-03-08 06:53:00
9:53 PM,64.9,61.0,87,30.06,10.0,West,5.8,-,N/A,,Clear,280,2013-03-08 07:53:00
10:53 PM,64.0,60.1,87,30.06,10.0,West,8.1,-,N/A,,Clear,280,2013-03-08 08:53:00
11:53 PM,63.0,59.0,87,30.04,10.0,West,6.9,-,N/A,,Clear,270,2013-03-08 09:53:00